GFSGL_con_lsi_111.txt.gz
Lid_Strength_Index
3 3 3 2 1 1 1 1 1 1 1 1 1 1 1 1 1 1 2 2 2 2 1 2 2 2 2 2 1 2 3 3 4 3 3 2 1 1 1 0 0 0 1
3 3 2 2 2 2 1 1 1 2 1 2 2 2 1 1 1 1 2 1 1 2 2 2 1 1 2 2 1 2 2 2 2 4 3 2 2 2 1 2 1 -0 1
1 1 1 2 1 1 1 1 2 1 2 2 3 1 2 2 2 1 1 1 2 1 1 2 1 2 2 2 2 2 2 2 2 3 3 2 2 2 2 2 1 1 0
1 1 1 2 1 2 2 2 2 2 2 2 2 3 2 3 2 1 1 1 1 1 1 1 1 1 2 2 2 2 2 3 3 3 3 3 3 3 2 2 2 1 1
2 1 1 2 2 2 3 3 2 2 1 2 2 2 2 1 0 1 1 1 1 1 1 1 1 1 1 2 2 2 2 3 3 3 3 3 3 3 3 3 3 3 3
2 2 2 3 2 2 2 2 2 3 2 2 2 1 2 0 3 4 2 1 1 2 2 1 1 2 2 2 2 3 2 2 3 4 4 4 4 5 4 4 4 4 5
5 5 4 4 4 3 2 2 2 2 2 2 2 2 3 2 6 6 5 3 2 2 2 1 1 0 2 2 2 4 4 4 3 2 4 4 5 4 4 5 5 5 5
7 7 7 6 4 3 3 3 3 2 3 2 2 2 3 2 6 7 5 4 3 3 3 2 2 1 1 1 1 2 2 2 2 3 3 3 3 3 4 4 4 4 4
7 8 8 7 7 6 5 3 3 3 3 3 2 2 2 2 5 6 5 3 3 3 2 2 2 2 4 6 3 2 2 1 2 4 5 5 5 5 5 4 4 5 3
8 9 9 8 8 7 7 6 5 4 3 3 3 2 3 2 4 5 4 1 2 2 2 1 6 5 9 9 5 4 3 3 3 3 3 3 3 3 5 3 2 3 3
9 9 9 9 9 8 8 7 7 7 6 5 4 4 3 3 3 7 7 1 2 1 2 1 2 8 9 10 9 5 4 3 4 3 3 3 2 2 1 2 2 2 2
7 7 7 7 6 6 7 6 6 5 5 5 5 5 5 5 6 7 8 6 5 4 4 3 4 9 11 10 9 7 7 7 4 3 3 3 3 2 1 1 0 1 0
9 8 8 7 7 6 7 7 7 6 6 5 5 5 5 3 4 7 8 7 6 6 5 5 8 9 9 7 7 7 7 5 4 3 3 3 2 1 1 2 2 1 0
9 10 9 8 8 7 7 7 7 7 7 7 7 6 6 5 4 3 4 5 7 7 6 7 6 7 8 7 6 4 3 2 2 2 2 1 1 2 2 1 2 2 2
9 9 9 9 9 8 8 8 7 8 8 8 8 8 7 6 5 8 9 7 5 6 7 6 6 6 5 5 5 4 3 2 2 1 1 1 1 1 1 1 2 2 3
10 9 9 9 9 8 9 8 7 8 8 9 10 9 7 8 9 10 11 11 11 8 5 4 5 4 4 4 3 2 2 1 2 3 1 1 2 2 2 1 1 2 3
10 10 9 9 9 9 9 9 9 8 8 8 9 9 9 10 10 10 11 12 10 8 6 6 6 4 4 3 3 3 4 3 3 2 1 2 2 1 2 2 2 2 2
9 6 9 9 9 9 9 9 9 9 9 8 8 8 9 9 9 10 11 9 7 8 8 6 5 5 3 4 5 5 5 5 4 4 4 2 1 2 2 2 2 2 3
9 9 9 9 9 9 9 9 9 9 9 9 8 8 8 9 10 9 11 8 6 6 5 5 5 3 3 4 5 5 5 5 5 4 4 4 4 3 2 2 2 5 4
9 6 7 9 10 10 9 9 10 10 9 9 8 8 7 8 8 7 7 6 5 5 4 4 5 5 5 6 5 6 6 6 6 6 6 5 5 5 4 3 3 3 3
9 9 6 9 10 10 10 10 10 10 10 10 10 8 8 9 8 7 6 6 5 5 5 5 6 6 6 6 7 7 7 7 7 7 7 7 6 6 5 6 5 4 2
9 10 10 10 10 10 10 10 10 10 10 10 10 9 9 9 9 9 8 6 4 4 4 6 7 7 8 7 7 7 7 8 8 8 8 8 8 8 7 7 7 6 4
10 11 11 11 11 10 11 11 12 12 11 10 11 10 10 10 10 9 8 8 7 6 4 5 6 7 7 7 7 7 8 8 8 8 9 10 10 10 9 9 8 8 7
10 10 11 11 11 11 11 11 11 10 11 11 10 11 11 11 10 10 9 9 8 7 6 5 6 6 6 6 7 7 7 8 8 9 9 10 11 11 10 10 9 8 7
9 9 10 10 10 10 11 11 11 10 10 10 10 10 10 10 10 11 10 9 9 9 8 7 7 7 7 7 8 8 10 12 12 11 11 12 12 11 10 10 9 8 8
9 9 9 9 10 10 10 10 10 10 11 10 9 9 10 10 10 11 10 10 10 9 9 8 8 8 8 8 9 10 13 14 12 13 12 11 11 10 10 9 8 8 6

GFSGL_con_lsi_114.txt.gz
Lid_Strength_Index
1 1 1 1 1 1 1 1 1 -0 0 0 0 -0 -0 -0 -0 -0 -0 0 0 0 -0 0 0 -0 0 -0 -0 0 1 1 3 2 0 -0 -0 -0 -1 -2 -1 -1 -1
2 2 2 2 1 1 0 0 0 0 0 0 0 0 -0 -0 -0 0 0 0 0 1 0 0 1 0 0 -0 0 1 1 0 2 3 1 1 0 -1 -1 -1 -1 -1 -1
1 2 2 1 1 1 0 0 -0 1 1 1 1 1 1 0 0 -0 0 0 0 0 0 0 0 0 1 0 0 1 1 1 1 2 2 1 0 -0 0 -1 -1 -1 -1
1 2 2 1 1 1 1 0 0 1 1 1 1 2 1 0 1 0 0 0 0 0 -0 -0 0 0 1 0 1 0 1 1 1 2 2 2 1 0 0 1 1 -0 0
1 1 1 1 1 1 2 2 1 1 1 0 1 1 1 1 1 1 -0 0 0 0 0 -0 -0 -0 1 1 0 0 1 1 1 2 2 2 2 2 2 1 2 2 0
3 3 2 3 2 1 2 2 2 2 1 1 1 1 1 1 5 4 2 0 0 0 1 0 -0 1 1 3 4 3 1 1 1 2 2 2 2 1 2 2 2 2 3
5 5 4 3 3 2 3 2 2 2 2 2 2 2 1 2 6 6 4 1 1 1 1 1 1 -0 0 -0 2 4 4 5 3 0 2 2 2 1 1 1 1 2 2
7 7 6 6 5 4 3 3 3 2 3 2 2 1 1 1 5 6 5 1 1 1 1 1 1 1 0 1 0 0 0 -0 -0 1 1 0 -0 -0 1 0 1 1 1
8 8 7 7 7 6 5 4 3 2 2 2 2 1 1 1 5 5 3 1 1 1 1 0 1 0 7 7 1 1 1 0 2 4 5 5 5 5 3 1 2 2 3
9 8 8 7 8 7 7 6 5 4 3 2 3 2 3 0 6 6 4 1 1 1 0 1 6 5 8 9 3 2 2 1 1 1 0 1 3 1 5 1 0 2 2
8 8 8 8 7 8 7 7 7 6 6 6 4 3 3 3 4 7 7 2 1 1 1 1 1 6 8 9 9 5 3 3 3 2 1 1 1 0 0 -0 -0 1 2
8 8 9 8 8 9 8 8 8 7 7 6 6 7 6 5 6 7 8 7 5 4 3 2 2 8 10 10 8 7 8 7 3 3 2 1 1 1 0 -0 -1 -1 -1
8 8 8 8 8 7 7 7 8 7 6 6 5 5 5 5 5 8 9 9 7 4 4 5 8 9 9 7 7 7 7 2 1 1 2 1 1 0 -0 -0 -1 -1 -1
9 8 8 8 8 8 7 7 7 7 6 6 6 6 6 5 5 5 6 6 6 6 5 6 6 7 8 7 5 4 2 2 1 1 1 1 0 0 1 0 1 1 1
9 9 8 8 9 9 9 8 7 7 7 6 7 7 6 6 6 9 9 7 8 7 7 3 2 4 5 5 4 3 2 2 3 3 3 2 2 1 1 0 1 1 2
9 9 8 8 8 9 9 9 9 9 9 10 10 9 7 8 10 10 11 12 11 9 4 3 4 3 3 3 3 3 3 4 4 3 1 2 3 1 1 1 1 2 2
9 9 9 9 9 9 9 9 10 9 9 9 10 10 10 10 10 11 12 12 10 8 5 4 4 3 3 2 1 1 3 4 4 4 5 4 3 3 2 1 1 2 2
8 8 9 9 9 9 9 9 9 10 10 9 9 9 10 10 10 10 11 9 6 6 5 4 4 3 3 2 2 3 3 3 4 4 4 3 3 4 4 4 3 2 2
7 8 9 10 9 8 8 9 9 10 10 10 10 10 9 10 10 10 10 7 7 7 5 4 3 3 4 4 5 5 5 4 5 5 5 5 5 4 4 4 3 6 5
6 6 8 9 9 9 9 9 10 10 10 10 10 10 9 10 10 10 9 8 7 7 6 5 4 5 5 6 6 6 6 6 5 5 6 6 6 6 6 5 5 5 5
7 6 7 8 8 8 9 9 9 10 10 10 10 9 10 10 9 9 9 9 9 8 7 7 5 5 6 6 7 7 7 7 7 7 6 7 7 7 6 7 7 6 6
8 8 8 8 8 8 8 8 8 9 9 9 9 9 10 9 9 9 9 9 8 7 7 7 7 6 6 7 7 7 7 7 7 7 7 7 8 8 8 8 8 8 7
8 8 9 9 8 8 8 9 9 9 9 9 9 9 9 9 9 10 10 9 9 8 7 7 8 7 6 6 6 7 8 8 7 7 8 9 9 9 9 10 10 10 9
8 8 8 8 9 9 9 9 9 10 9 9 9 9 9 10 10 10 10 10 10 9 8 8 8 8 7 7 6 6 7 7 8 9 9 10 10 10 10 10 10 10 9
7 7 8 8 8 8 8 8 8 8 8 8 8 9 9 9 9 9 9 9 10 10 9 9 8 8 8 8 7 7 8 12 10 10 10 10 11 11 11 10 10 10 9
7 7 7 7 8 8 7 7 7 7 8 8 8 8 8 9 9 9 9 9 9 9 9 9 9 8 8 8 8 9 12 13 12 13 12 11 11 10 10 10 9 9 8

GFSGL_con_lsi_117.txt.gz
Lid_Strength_Index
0 -0 0 -0 -0 -0 -0 -0 -0 -1 -1 -1 -1 -1 -1 -0 -1 -1 -1 -1 -0 -0 -0 -0 -0 -1 -0 -0 -1 -1 0 1 2 1 0 -1 -1 -1 -1 -2 -2 -2 -1
0 0 0 -0 -0 0 -0 -0 -1 -0 -1 -1 -1 -1 -1 -1 -1 -0 -0 -0 0 0 0 -0 0 -0 -0 -1 -0 0 0 -0 1 2 1 0 -0 -1 -1 -1 -1 -1 -1
0 0 0 0 0 0 -0 -0 -0 -0 -0 -1 -1 -0 -0 -0 -1 -1 -1 -0 -0 -0 -0 0 0 -0 0 -0 0 0 0 0 0 1 2 0 0 -0 -0 -1 -1 -1 -1
1 1 1 1 0 0 -0 -0 -0 -1 -0 -0 -1 -0 -1 -1 -1 -1 -1 -0 -0 -0 -1 -1 -0 -0 -0 -0 -0 -0 -0 -0 -0 1 1 1 1 -0 -0 1 1 -0 -0
1 1 1 0 -0 -0 0 -0 -0 -0 -0 -1 -0 -1 -1 -1 -0 -0 -0 -0 -0 -0 -0 -1 -1 -0 1 0 -0 -0 -0 1 1 1 2 1 1 1 1 1 1 1 -0
2 1 1 0 0 0 0 0 0 0 -0 -0 0 -0 0 -0 5 4 1 -0 -0 -0 -0 -0 -1 0 0 3 3 3 1 0 1 2 2 2 1 1 0 1 1 2 3
5 3 3 1 1 1 1 1 1 1 -0 0 -0 0 0 0 6 5 4 -0 -0 -0 -0 -0 -0 -0 0 -1 2 3 3 4 3 -0 1 1 1 0 0 1 1 1 2
6 5 4 4 3 2 1 1 1 0 0 0 0 -0 -0 0 5 6 4 -1 -1 -0 -0 -0 -0 -0 -0 0 -0 -0 -0 -0 -1 -0 -0 -0 -1 -1 -1 -0 0 0 0
6 6 5 3 3 4 4 3 1 0 0 0 -0 0 0 -0 5 5 2 -0 -0 -0 -0 -0 -0 -0 7 7 0 1 0 0 2 4 4 5 4 4 3 -0 1 2 2
7 7 6 6 5 6 5 5 3 2 2 1 0 -0 3 2 7 7 3 1 1 1 0 1 6 5 7 8 2 0 1 1 0 -0 -0 0 2 0 5 -0 0 2 2
7 7 8 7 6 6 6 5 4 3 3 3 2 2 1 3 5 8 8 2 3 3 3 2 1 7 9 9 8 2 3 4 3 1 0 -0 -0 -0 -1 -1 -2 0 2
7 7 7 8 8 7 6 6 5 4 5 5 5 4 5 4 8 9 9 9 7 3 3 3 3 9 10 9 6 6 7 6 2 2 1 1 1 0 -0 -1 -1 -1 -1
7 7 7 6 6 7 7 7 7 5 6 5 5 4 3 3 2 5 6 7 8 5 4 6 8 9 8 6 7 6 5 0 1 1 1 1 0 -0 -1 -1 -1 -2 -2
7 7 7 7 7 7 7 7 7 7 6 5 5 4 3 3 4 4 3 2 3 5 7 5 6 7 8 6 4 3 1 1 1 2 2 1 1 1 1 -0 0 1 1
6 6 7 7 7 7 7 7 7 7 7 5 5 4 4 4 6 8 8 5 5 5 5 1 2 4 5 4 2 2 2 2 3 4 4 3 4 3 3 2 1 1 2
7 8 7 7 8 7 7 7 9 9 10 11 11 9 6 9 10 11 12 11 11 10 3 3 2 2 2 2 3 3 2 1 1 3 4 4 5 4 4 3 2 2 2
7 7 7 7 7 7 7 7 7 8 9 10 10 10 10 11 11 11 11 11 9 8 4 3 3 3 3 2 1 1 1 1 1 1 1 2 4 4 5 4 3 3 3
6 8 7 7 7 8 8 8 8 8 8 8 9 10 11 11 11 11 11 10 6 6 5 5 3 3 3 3 3 3 3 3 3 2 2 2 2 2 2 3 3 3 3
5 5 6 6 7 8 8 8 8 9 9 9 8 9 9 11 11 11 10 7 7 6 5 5 4 4 4 4 3 4 4 4 4 3 2 3 4 5 5 4 3 5 5
5 6 6 6 6 6 6 7 7 8 8 9 9 9 9 9 8 8 8 8 8 8 7 7 7 7 6 4 4 4 4 4 4 4 4 4 4 4 6 6 5 5 5
4 4 5 5 5 5 5 6 6 6 8 8 8 8 11 8 8 8 8 8 8 8 7 7 7 7 7 7 7 7 7 6 6 6 6 6 6 7 7 7 7 7 6
4 4 5 5 5 5 5 5 5 5 5 6 6 6 9 7 7 7 7 8 8 8 8 8 8 7 7 7 7 7 8 8 8 8 8 7 7 8 8 8 9 8 8
4 5 5 5 5 5 5 5 5 5 5 5 5 6 6 7 7 7 7 7 7 8 8 8 8 8 7 8 7 7 8 8 7 8 9 9 9 10 9 9 9 9 10
4 4 5 5 5 5 5 5 5 8 6 5 5 6 6 6 7 7 7 7 8 9 9 9 9 9 9 8 8 8 7 6 6 6 7 8 9 9 9 10 10 9 9
4 4 4 4 5 5 4 5 4 4 4 4 5 5 5 5 6 6 6 7 7 8 9 9 9 9 9 9 8 8 9 12 10 10 9 9 10 10 10 10 10 9 9
4 4 3 3 3 3 3 4 4 4 4 4 4 4 4 4 4 5 6 6 7 8 8 8 8 8 8 8 8 9 11 12 10 12 11 10 11 11 10 10 9 9 8

GFSGL_con_lsi_120.txt.gz
Lid_Strength_Index
0 -0 -0 -0 -1 -1 -0 -1 -1 -1 -1 -1 -1 -1 -1 -1 -1 -1 -1 -1 -0 -1 -1 -1 -1 -1 -0 -0 -0 -0 0 0 2 1 -0 -1 -1 -1 -1 -2 -2 -2 -1
-0 -0 -0 -0 -1 -0 -0 -1 -1 -1 -1 -1 -1 -1 -1 -1 -1 -1 -0 -1 -0 -0 -0 -0 -0 -0 -1 -1 -0 -1 -0 -0 1 1 -0 0 -1 -1 -1 -1 -1 -1 -2
0 0 0 0 -0 -0 -0 -1 -1 -1 -1 -1 -1 -1 -1 -1 -1 -1 -1 -1 -1 -0 -1 -0 -0 -0 -0 -0 -0 0 -0 -0 -0 1 1 -0 -0 -1 -1 -1 -1 -2 -1
0 0 0 0 -0 -0 -1 -1 -1 -1 -1 -1 -1 -1 -1 -1 -1 -1 -1 -1 -1 -1 -1 -1 -1 -0 -0 -0 -0 -0 -0 0 0 1 1 1 0 -1 -0 1 1 -0 -0
1 1 1 0 -0 -0 -0 -0 -1 -1 -1 -1 -1 -1 -1 -1 -0 -1 -1 -1 -1 -0 -1 -1 -1 -1 0 0 0 -1 -0 0 1 1 1 1 1 1 1 0 1 0 -0
1 1 1 0 0 0 0 -0 -0 -0 -1 -1 -0 -0 -0 -1 5 3 1 -0 -1 -0 0 -0 -1 -0 -0 2 2 2 1 0 1 1 1 2 1 1 0 1 1 2 2
1 1 1 0 1 0 0 0 1 0 -0 0 -0 -0 0 -0 6 5 3 -0 -0 -0 -1 -0 -0 -1 -0 -1 2 3 3 3 3 -0 1 1 1 0 -0 1 1 1 2
5 4 2 1 1 0 1 1 0 0 0 0 0 0 0 1 5 5 4 -1 -1 -1 -1 -1 -1 -1 2 1 -0 -0 -0 -1 -1 -0 -0 -0 -1 -1 -1 -0 0 0 0
6 5 4 3 3 3 1 1 0 0 0 0 0 0 1 3 7 7 3 -1 -0 0 -0 2 -0 2 7 7 -0 0 0 -0 2 3 4 4 4 4 2 -0 1 1 2
5 6 5 4 4 4 4 2 1 -0 0 0 0 1 3 3 9 8 4 -0 0 0 -0 -0 5 5 8 8 2 0 1 1 1 0 -1 -0 2 -0 4 -1 -0 2 2
6 6 5 4 4 4 3 2 2 1 -0 1 1 1 3 4 5 8 8 2 2 1 2 1 1 7 9 9 8 1 2 3 3 1 -0 -0 -1 -1 -1 -2 -2 0 2
6 7 6 6 6 5 3 3 2 2 2 2 1 1 2 3 8 8 9 8 6 2 2 3 3 8 9 8 6 7 7 5 0 0 0 0 0 0 -1 -1 -2 -2 -1
6 6 6 6 6 6 6 5 5 4 3 2 2 2 3 3 3 6 6 6 4 2 2 4 7 8 8 6 7 6 6 1 1 1 1 1 0 0 -1 -1 -2 -3 -3
6 5 5 5 5 5 7 7 6 5 4 5 5 4 3 2 3 3 2 1 2 1 2 -0 1 3 6 5 4 3 2 1 2 3 3 2 2 2 3 2 2 2 1
5 5 5 6 5 6 7 7 7 8 8 5 5 5 5 5 7 9 9 5 4 4 5 1 1 1 1 3 4 2 2 2 3 3 3 3 3 3 3 2 3 3 3
5 5 6 5 5 5 6 7 10 10 11 11 11 9 7 11 12 11 12 11 11 10 4 3 3 2 2 2 2 1 0 -0 0 2 3 3 3 2 2 2 3 4 4
5 5 6 6 5 6 6 6 8 9 11 12 12 11 11 12 11 11 11 11 10 8 4 3 3 2 2 2 2 2 2 1 0 1 1 0 2 3 3 3 2 2 3
5 8 5 6 6 7 7 7 7 7 7 7 11 10 11 11 11 11 11 9 5 5 4 4 4 3 3 3 2 2 2 2 2 2 2 1 1 1 2 2 2 2 2
6 6 6 6 6 6 6 6 6 6 6 6 6 9 9 11 11 11 11 6 6 6 6 6 5 5 5 4 3 3 3 3 3 3 3 3 3 3 3 3 3 5 4
5 6 5 6 7 6 6 6 6 6 6 6 7 8 7 7 7 7 7 7 7 7 6 6 6 6 6 5 5 5 5 6 5 5 5 5 5 5 5 5 5 5 5
4 5 4 5 4 4 4 4 5 5 5 5 5 8 12 7 6 6 6 6 7 7 7 7 7 7 6 6 6 7 7 8 7 7 7 7 6 7 6 7 7 7 7
3 4 4 4 3 3 4 3 4 4 4 3 4 6 9 6 5 5 6 6 6 6 6 6 6 7 6 6 7 8 8 8 8 8 8 8 8 9 9 9 9 9 9
2 3 3 3 3 4 4 4 4 4 3 3 3 3 3 3 4 4 5 5 5 5 5 6 6 7 7 7 7 8 8 8 8 7 8 8 8 8 8 9 9 9 9
2 2 2 3 3 3 3 3 3 6 4 4 4 4 4 4 4 4 5 5 5 5 5 6 7 8 8 8 8 8 8 8 8 9 9 9 9 9 8 8 9 9 8
2 2 2 2 2 3 3 3 3 3 3 3 3 3 3 3 3 3 4 4 5 5 5 6 7 7 8 8 8 8 10 14 11 11 9 9 9 9 9 9 9 9 8
3 4 3 2 2 2 2 2 2 2 3 2 2 2 2 2 2 2 3 3 3 4 4 5 6 7 7 7 7 10 12 13 11 12 10 10 10 9 9 8 8 8 8

GFSGL_con_lsi_123.txt.gz
Lid_Strength_Index
0 -0 -0 -0 -1 -1 -0 -1 -1 -1 -1 -1 -1 -1 -1 -1 -1 -1 -1 -1 -0 -1 -1 -1 -1 -1 0 -0 -0 -0 0 1 2 1 0 -1 -2 -1 -1 -2 -2 -2 -1
0 -0 -0 -0 -1 -0 -0 -1 -1 -1 -1 -1 -1 -1 -1 -1 -1 -1 -0 -1 -0 -0 -0 -1 -0 -0 -1 -1 -0 -0 -0 -0 1 2 1 0 -1 -2 -2 -1 -1 -1 -2
0 0 0 0 -0 -0 -0 -1 -1 -1 -1 -1 -1 -1 -1 -1 -1 -1 -1 -0 -0 -0 -1 -1 -0 -1 -0 -0 -0 0 0 0 -0 1 1 0 -0 -1 -1 -1 -1 -2 -1
1 1 1 0 -0 -0 -1 -1 -1 -1 -1 -1 -1 -1 -1 -1 -1 -1 -1 -1 -1 -1 -1 -1 -1 -1 -1 -0 -0 -0 -0 0 0 1 1 1 0 -1 -0 1 1 -0 -0
0 0 0 -0 -0 -0 -0 -0 -1 -1 -0 -1 -1 -1 -1 -1 -0 -1 -1 -1 -1 -0 -1 -1 -1 -1 -0 1 0 -0 0 1 1 1 1 1 1 1 1 1 1 0 -0
1 1 0 0 0 0 -0 -0 -0 -0 -1 -1 -1 -0 -0 -0 4 3 0 -0 -0 -0 -0 -1 -1 -0 -0 1 1 2 0 0 1 2 2 2 1 1 1 1 1 2 3
1 1 1 1 1 0 0 0 0 0 -0 -0 -0 -1 -0 0 6 5 3 -0 -0 -0 -0 -0 -0 0 -0 -0 1 3 3 3 2 0 1 1 1 0 0 1 1 1 2
4 4 2 1 1 1 0 1 0 0 0 0 0 -0 2 5 8 7 5 -0 -0 -0 -0 -1 -0 0 4 2 -0 0 -0 -0 -1 -0 -0 -0 -1 -1 -1 -0 0 0 0
4 4 4 3 2 2 1 1 1 0 1 1 0 2 3 4 8 7 4 -1 -0 0 -0 1 0 2 7 7 0 0 0 0 1 3 4 4 4 4 3 -0 1 2 3
4 4 3 4 5 5 3 3 1 0 1 1 2 2 5 4 9 8 6 -0 0 -0 -0 1 7 4 7 7 2 1 1 1 2 2 0 -1 1 -0 4 -1 -0 2 2
3 3 4 4 4 4 3 3 2 1 1 2 3 4 4 3 5 8 7 1 1 0 0 0 1 7 8 8 7 1 3 3 2 0 -0 -0 -1 -1 -1 -1 -2 0 2
4 5 5 4 5 3 2 2 2 2 1 2 2 4 4 6 7 8 8 7 6 1 1 2 2 8 8 8 6 7 6 4 0 1 1 1 0 0 -0 -1 -2 -2 -2
5 5 5 4 5 4 5 3 2 2 2 1 1 2 3 2 3 7 7 6 6 3 4 5 7 7 7 5 6 6 6 2 2 2 3 3 2 2 -2 -1 -2 -4 -3
6 5 5 5 5 5 5 5 5 5 4 3 2 2 2 3 5 6 5 3 2 1 2 2 1 2 3 2 1 0 -1 0 1 2 2 3 3 2 2 2 2 2 2
5 6 5 5 5 6 6 7 8 9 9 5 5 6 6 7 8 11 10 7 6 5 6 1 1 1 1 1 1 0 -0 -0 0 1 2 3 1 1 3 3 3 4 4
6 5 5 6 5 6 6 8 11 11 12 13 12 9 10 11 11 12 12 12 12 11 5 3 3 2 2 2 2 2 1 1 0 0 1 0 1 1 1 1 2 4 4
5 5 5 6 5 5 5 6 9 10 11 12 12 12 12 12 12 12 13 13 12 10 6 5 5 5 5 4 3 2 2 2 1 2 1 1 2 1 2 1 1 1 2
5 8 6 5 5 5 5 5 5 6 6 7 11 10 12 12 12 12 12 10 5 6 5 4 5 4 5 4 4 3 3 2 3 2 2 3 2 2 2 3 2 3 3
6 7 5 5 5 6 5 5 6 6 6 6 7 10 10 11 11 11 11 5 6 6 6 6 6 5 5 5 5 5 5 5 5 5 5 4 4 4 4 4 4 6 6
4 6 6 5 7 7 6 6 6 6 6 6 7 7 7 6 6 6 6 6 6 7 7 6 6 6 6 6 6 6 6 6 6 7 7 6 6 6 7 7 7 7 7
3 4 4 4 5 5 5 5 5 6 6 6 6 8 12 6 5 5 5 5 5 5 6 6 6 6 6 6 6 7 7 7 7 7 7 7 7 8 8 7 7 7 8
2 3 4 4 3 3 4 4 4 4 5 5 5 6 9 5 4 4 4 5 5 5 5 6 6 6 6 7 7 7 8 8 8 9 9 9 9 9 9 9 9 9 9
2 2 3 3 3 3 3 3 3 3 3 3 3 3 4 3 3 3 3 4 4 4 4 5 5 6 6 6 6 7 8 9 9 9 10 10 10 10 9 9 9 9 9
2 1 2 2 2 2 3 3 3 5 4 3 3 3 3 3 3 3 3 3 4 4 4 4 5 5 6 6 6 7 7 8 9 9 9 10 10 10 9 10 9 9 9
2 2 2 2 3 3 2 2 1 2 2 3 3 2 2 2 2 3 2 2 3 3 4 4 4 5 5 6 6 7 9 13 10 11 9 10 10 10 9 9 9 9 8
0 0 2 3 3 2 2 2 2 2 2 2 2 1 1 1 1 1 1 1 2 2 2 3 4 4 5 5 6 9 11 12 9 12 10 10 9 9 9 9 8 8 9

GFSGL_con_lsi_126.txt.gz
Lid_Strength_Index
1 1 1 1 0 0 0 -0 -0 -1 -1 -0 -1 -0 -0 0 -0 -0 -0 -0 0 0 0 0 0 -0 1 1 1 1 1 1 3 2 1 0 0 0 -0 -1 -1 -1 0
1 1 1 0 0 0 0 0 -0 -0 -1 -1 -1 -1 -0 -0 -0 0 0 0 1 1 0 0 1 0 0 0 1 1 1 1 2 3 2 1 1 -0 0 0 -0 -1 -1
1 1 1 1 0 1 0 0 -0 -0 -0 -1 -1 -0 -0 -0 -0 0 0 0 0 1 0 0 0 0 0 0 1 1 1 1 1 2 2 1 1 0 1 0 0 -0 -1
2 1 1 1 1 0 0 -0 -0 -0 0 -0 -0 -0 -0 -0 -0 0 0 0 0 0 0 0 0 0 1 0 1 1 1 1 1 2 2 2 1 1 1 2 2 0 1
1 1 1 0 0 -0 -0 -0 -0 -0 0 -0 -0 -0 -0 -1 0 1 0 0 0 0 -0 -0 -0 -0 0 1 0 0 1 1 2 2 2 2 2 2 2 1 2 1 1
1 1 0 0 0 0 -0 0 0 0 -0 -0 0 0 0 1 5 3 1 -0 0 0 1 0 -0 -0 0 1 1 2 0 1 2 2 2 3 2 2 1 2 2 3 4
1 1 1 1 1 1 0 0 0 0 0 0 0 0 1 3 6 5 3 0 -0 -0 0 0 0 1 2 -0 1 2 3 3 3 1 2 2 2 1 1 2 2 2 2
2 3 2 2 3 1 1 1 1 0 0 0 0 1 4 6 8 7 5 -0 0 0 0 0 0 3 5 5 0 0 0 0 -0 -0 0 0 0 -0 0 1 1 1 1
4 4 4 4 4 3 4 3 1 1 1 2 3 4 5 7 8 8 4 0 0 1 2 4 1 3 7 7 0 1 1 0 2 4 4 4 3 3 2 0 2 2 3
4 4 4 4 5 4 4 4 2 2 2 4 4 5 6 6 8 8 4 1 1 1 2 4 6 5 7 7 1 1 2 2 2 2 1 0 1 0 3 0 0 2 3
2 3 3 2 3 3 3 3 2 2 3 5 6 5 5 5 6 8 8 4 4 1 1 1 3 6 7 7 7 1 2 4 2 1 1 0 0 0 -0 -1 -1 1 2
3 4 4 4 3 2 3 3 2 2 3 4 5 5 5 5 7 7 8 7 6 2 3 3 2 7 7 6 4 5 5 5 1 2 3 2 2 2 2 1 -1 -1 -1
5 5 4 3 3 4 3 3 2 2 3 3 3 5 7 6 6 7 7 7 6 4 5 6 7 8 7 6 5 5 5 1 1 1 2 2 2 2 0 2 2 0 1
6 5 4 4 4 3 5 5 7 8 5 3 4 5 6 8 9 9 10 8 7 6 6 4 4 6 6 5 3 -0 -0 0 1 1 1 1 0 0 1 1 3 2 3
6 6 6 5 5 7 9 9 10 12 11 7 7 8 7 9 11 11 12 10 9 8 8 1 1 1 1 1 1 0 0 0 1 1 2 2 1 1 1 0 2 3 2
6 6 6 6 6 7 8 10 11 12 13 14 13 10 11 11 12 13 13 12 12 11 5 3 3 3 3 3 3 2 2 2 2 3 2 3 3 3 3 2 1 2 3
7 7 7 6 6 7 8 9 11 11 12 13 13 12 12 12 12 12 12 12 12 10 4 6 6 6 6 6 7 6 6 6 5 5 4 4 3 3 3 3 3 3 3
6 7 7 7 5 5 6 6 8 8 9 10 11 11 12 12 12 12 12 10 4 6 5 6 6 6 6 7 6 6 6 6 6 6 6 5 5 5 5 5 5 6 6
4 5 5 5 4 5 5 6 5 4 6 7 8 10 10 11 10 11 11 5 6 6 6 7 6 7 6 6 6 6 6 6 6 7 7 7 7 7 7 7 7 8 8
4 4 4 5 7 5 6 6 6 5 4 6 7 7 7 8 8 5 5 5 6 7 7 7 7 7 7 7 7 7 8 8 8 8 8 8 8 8 9 9 9 9 9
1 3 4 5 6 6 6 5 4 4 5 6 8 10 12 8 6 6 6 6 6 7 6 7 6 6 7 7 7 8 8 9 9 9 9 10 9 10 10 10 10 10 10
2 2 3 3 3 2 3 3 4 4 4 5 6 9 10 7 5 5 4 5 5 4 5 4 5 6 6 7 7 8 8 9 9 9 10 10 10 10 10 10 10 10 11
2 2 3 3 2 2 2 2 2 3 3 3 4 5 6 5 4 4 4 4 4 3 3 3 4 5 5 6 6 6 7 8 9 9 10 10 10 10 10 11 11 11 11
3 2 2 2 2 2 2 2 2 4 3 3 3 3 3 3 3 3 3 3 2 3 3 3 4 5 5 5 5 6 7 8 8 8 9 10 10 10 10 11 10 10 10
2 3 2 2 2 3 2 2 2 2 2 2 2 2 2 2 2 2 2 2 2 2 3 3 3 4 5 5 6 6 10 13 10 11 9 9 10 10 10 10 10 10 9
1 2 1 2 2 2 1 2 2 1 2 2 2 2 1 1 1 1 1 0 2 2 2 2 2 3 4 5 5 9 11 13 10 12 10 9 9 9 9 9 9 9 9

GFSGL_con_lsi_132.txt.gz
Lid_Strength_Index
1 1 1 1 1 1 1 1 1 1 2 1 1 1 1 1 1 1 1 1 1 2 1 1 1 1 1 1 1 2 2 2 4 3 2 1 1 1 0 1 -0 1 1
1 1 1 1 1 1 1 1 1 1 1 1 1 1 1 1 0 1 1 1 1 2 1 2 1 1 1 2 1 2 2 2 3 4 3 2 2 2 1 1 0 -1 1
3 3 1 1 1 1 1 1 1 1 1 0 1 1 1 1 1 1 1 1 1 1 1 1 1 2 2 1 2 2 2 2 2 2 3 2 1 1 1 0 1 0 -0
4 4 3 2 1 1 1 1 1 1 1 1 1 1 1 1 1 1 1 1 1 1 1 1 1 1 2 1 1 2 2 2 2 2 3 2 2 1 2 2 2 1 1
3 3 3 1 2 1 1 1 1 1 1 1 1 1 1 1 2 3 2 1 1 1 1 1 1 1 2 2 1 2 2 2 3 3 3 3 3 3 3 2 2 2 2
2 3 2 2 2 2 2 1 1 1 1 1 1 2 1 3 5 4 3 1 1 1 2 1 3 3 3 3 3 2 2 3 3 3 3 4 3 3 2 2 2 3 4
2 2 1 2 2 3 2 1 1 1 2 2 2 3 5 6 6 6 3 1 1 2 2 1 3 4 4 2 2 3 4 5 3 3 3 3 3 2 2 2 2 3 3
2 3 2 3 4 3 3 2 2 2 2 3 5 6 6 6 7 7 4 1 2 2 3 5 6 7 6 3 3 4 6 6 5 4 4 4 3 3 2 1 2 2 2
4 3 4 4 4 4 4 3 2 2 4 5 6 7 7 8 8 6 3 3 4 5 5 6 7 7 5 4 6 7 7 6 4 4 4 3 3 3 4 2 3 3 4
5 5 4 4 4 4 3 4 4 4 5 6 7 6 7 8 8 8 4 6 8 7 8 8 6 7 7 6 7 8 7 6 4 5 5 5 4 4 3 3 2 3 3
5 5 5 4 4 3 2 4 5 5 6 7 7 7 8 9 10 9 8 4 5 6 7 8 8 7 8 8 7 7 7 6 4 5 5 4 4 4 5 5 4 2 4
6 6 6 5 4 2 2 3 5 5 6 7 7 7 7 7 10 10 9 8 7 7 9 10 9 9 9 8 6 6 5 4 5 5 6 6 5 5 5 5 5 5 5
7 7 7 8 8 7 7 6 4 4 5 7 7 8 9 9 10 11 11 10 9 10 11 10 9 9 8 7 7 6 6 7 7 7 8 8 7 6 6 5 5 5 5
6 7 9 10 10 10 10 10 9 7 4 6 6 9 10 10 11 12 11 11 10 11 9 6 7 7 7 7 8 8 7 7 8 8 8 8 7 7 6 5 6 5 6
7 7 8 11 12 12 13 12 11 12 10 7 7 8 11 13 13 13 13 12 12 12 9 8 8 9 9 10 10 10 9 8 9 8 9 8 8 7 7 7 7 8 9
6 7 7 9 10 11 14 14 12 12 13 13 13 12 13 13 13 13 14 14 14 13 10 10 10 10 10 10 11 10 9 8 9 9 9 9 9 9 10 10 9 10 11
7 6 6 7 9 10 11 12 14 12 12 13 13 13 13 13 13 13 13 12 11 10 10 11 11 11 11 11 11 11 11 11 11 11 11 11 12 11 11 12 12 12 12
7 6 7 7 7 8 10 11 12 12 13 13 12 12 13 13 13 12 11 10 10 10 10 11 11 11 11 11 11 11 11 11 11 11 12 12 13 12 13 14 13 13 13
7 7 6 7 5 5 6 8 9 9 11 11 12 11 12 13 12 12 11 10 11 12 11 11 11 11 12 12 12 12 12 12 13 12 13 13 13 13 13 13 13 13 13
5 4 5 7 8 8 6 8 9 8 10 11 11 11 11 10 10 10 10 11 11 12 12 12 12 12 12 12 12 13 13 13 13 13 13 13 14 14 14 14 14 14 14
5 6 4 7 7 7 7 8 7 7 9 10 10 10 10 9 9 10 11 10 11 11 11 12 12 12 13 13 13 13 13 13 14 14 15 15 15 15 15 14 14 14 14
5 6 7 7 7 7 7 7 7 6 5 5 8 11 9 8 7 9 9 9 9 9 10 10 11 11 11 12 13 13 14 14 14 15 15 15 15 15 14 14 13 12 12
5 5 6 7 7 6 7 6 7 7 7 7 7 9 9 8 7 8 8 8 8 8 9 9 9 9 10 10 10 10 12 13 13 13 14 14 14 14 14 12 12 12 12
4 5 6 6 8 7 7 7 7 7 6 6 7 7 8 8 6 6 6 6 6 7 7 7 8 8 9 9 10 10 11 11 12 12 13 13 13 13 13 13 12 11 11
4 4 4 6 6 6 7 6 7 7 7 6 6 6 6 6 6 6 6 6 6 6 6 6 7 7 7 9 9 10 11 12 12 12 12 12 13 13 13 12 12 11 10
3 3 4 4 5 5 5 6 5 4 4 5 5 6 6 6 6 6 6 6 6 6 6 6 7 7 7 8 8 10 12 13 11 12 12 12 13 13 12 11 11 10 9